TOURFACTS.DK  
Stats and Facts from Tour de France.

Tour de France 2018 starts in 12 days
  Riders   Stages   Teams   Summits   Yearly  


 
Search by year

After 2017 - Stage 21:
 14824 starters.
  5132 different riders.
  639 teams.
  2232 stages.
  456 restdays.
  439589.60 km.
  5653 abandonnees.


Top 3
GC
Christopher Froome86:20:55
Rigoberto Urán86:21:49
Romain Bardet86:23:15
Climb
Warren Barguil169 pt.
Primoz Roglic80 pt.
Thomas De Gendt64 pt.
Sprint
Michael Matthews359 pt.
André Greipel234 pt.
Edvald Boasson Hagen220 pt.
Youth
Simon Yates86:27:09
Louis Meintjes86:29:15
Emanuel Buchmann86:54:16
Facts from Tour de France 1949
  |   Stages.  |   Stage winners.  |   Days in yellow  |   Average speed.  |   Route.  |   Teams.  |   All riders.  |   Rookies.  |  

  |   Withdrawls.  |   GC.  |   Polka  |   Green  |   White  |   Summits. (In tour)  |   Miscellaneous.  |  

Stage 11 on 12 - 07 - 1949
         Owning:    Vittorio Magni    
Pick a stage:  1 2 3 4 5 6 7 8 9 10 11 12 13 14 15 16 17 18 19 20 21
  PauLuchon | Dist: 193.00 km.
Cat: 1Col de l'AubisqueFRARaphaël Geminiani
1 points
 
Cat: 1Col du TourmaletITAFausto Coppi
10 points
 
Cat: 2Col d'AspinFRAJean-Apotre Lazarides
6 points
 
Cat: 2Col de PeyresourdeFRAPierre Cogan
2 points
 

Average speed for all riders in stage:  25,903 km./hr.
    Place:Name:Team:Time:Km/h:
ESPBernardo RuízESPSpain07:06:22  +  00:00:00=27,160 
FRALucien LazaridesFRAFrance07:06:22  +  00:00:00=27,160 
ITAFausto CoppiITAItaly07:07:19  +  00:00:57=27,099 
4 FRAAndré BruléFRAIle De France07:10:02  +  00:03:40=26,928 
5 FRAPierre CoganFRAWest-North07:10:04  +  00:03:42=26,926 
6 ITAGino BartaliITAItaly07:10:59  +  00:04:37=26,869 
7 FRAJean-Apotre LazaridesFRAFrance07:12:34  +  00:06:12=26,770 
8 FRARené ViettoFRAFrance07:14:11  +  00:07:49=26,671 
9 ITAÉdouard FachleitnerFRASouth-East07:14:14  +  00:07:52=26,643 
10 BELStan OckersBELBelgium07:15:06  +  00:08:44=26,615 
11 LUXJean GoldschmitLUXLuxembourg07:15:22  +  00:09:00=26,598 
12 FRARobert ChapatteFRAFrance07:15:33  +  00:09:11=26,587 
13 ITABruno PasquiniITAItaly07:16:28  +  00:10:06=26,531 
14 BELMarcel DupontBELAiglons Belges07:16:28  +  00:10:06=26,531 
15 FRAHenri MassalFRACenter-South West07:17:06  +  00:10:44=26,493 
16 SUIPierre BrambillaFRASouth-East07:17:06  +  00:10:44=26,493 
17 FRARaphaël GeminianiFRAFrance07:17:48  +  00:11:26=26,450 
18 BELRoger LambrechtBELBelgium07:18:11  +  00:11:49=26,427 
19 FRAJean-Marie GoasmatFRAWest-North07:18:28  +  00:12:06=26,410 
20 ITANello LaurediFRASouth-East07:18:53  +  00:12:31=26,385 
21 BELMarcel De MulderBELAiglons Belges07:20:23  +  00:14:01=26,295 
22 ITAGiuseppe TaccaFRAIle De France07:20:27  +  00:14:05=26,291 
23 FRAAntonin RollandFRASouth-East07:20:27  +  00:14:05=26,291 
24 LUXJean KirchenLUXLuxembourg07:20:47  +  00:14:25=26,271 
25 SUIFerdi KüblerCHESwitzerland07:21:06  +  00:14:44=26,253 
26 SUIGottfried WeilenmannCHESwitzerland07:21:06  +  00:14:44=26,253 
27 FRARobert DesbatsFRACenter-South West07:21:27  +  00:15:05=26,232 
28 FRAJacques MarinelliFRAIle De France07:21:27  +  00:15:05=26,232 
29 ITAAlfredo MartiniITACadetti Italiens07:22:25  +  00:16:03=26,174 
30 ITAVittorio MagniITACadetti Italiens07:22:25  +  00:16:03=26,174 
31 ITAArmando PeverelliITACadetti Italiens07:22:25  +  00:16:03=26,174 
32 ITAVincenzo RosselloITAItaly07:22:25  +  00:16:03=26,174 
33 FRALucien TeisseireFRAFrance07:23:06  +  00:16:44=26,134 
34 FRAEmile IdéeFRAIle De France07:23:06  +  00:16:44=26,134 
35 SUIGeorges AeschlimannCHESwitzerland07:23:27  +  00:17:05=26,113 
36 LUXJean DiederichLUXLuxembourg07:23:54  +  00:17:32=26,087 
37 BELJacques GeusBELAiglons Belges07:25:06  +  00:18:44=26,017 
38 FRALouis DeprezFRAFrance07:26:40  +  00:20:18=25,925 
39 ITAAdolphe DeleddaFRASouth-East07:27:01  +  00:20:39=25,905 
40 BELJoseph VerhaertBELAiglons Belges07:27:27  +  00:21:05=25,880 
41 BELMarcel HendrickxBELAiglons Belges07:27:27  +  00:21:05=25,880 
42 ITASerifano BiagioniITAItaly07:28:08  +  00:21:46=25,841 
43 ITAMario RicciITAItaly07:28:29  +  00:22:07=25,820 
44 BELRik Van SteenbergenBELBelgium07:30:01  +  00:23:39=25,732 
45 FRARoger LevequeFRACenter-South West07:30:01  +  00:23:39=25,732 
46 BELBriek SchotteBELBelgium07:30:50  +  00:24:28=25,686 
47 FRALouis CaputFRAIle De France07:30:53  +  00:24:31=25,683 
48 FRAEdouard MullerFRAIle De France07:31:09  +  00:24:47=25,668 
49 FRAGeorges MartinFRASouth-East07:31:09  +  00:24:47=25,668 
50 ITAGuido De SantiITAItaly07:33:25  +  00:27:03=25,539 
51 ITAEttore MilanoITAItaly07:33:25  +  00:27:03=25,539 
52 ITASylvio PedroniITACadetti Italiens07:33:37  +  00:27:15=25,528 
53 ITAAngelo BrignoleITAItaly07:33:53  +  00:27:31=25,513 
54 BELDésiré KeteleerBELBelgium07:35:57  +  00:29:35=25,398 
55 FRAPaul PineauFRACenter-South West07:36:37  +  00:30:15=25,360 
56 BELMarcel KintBELBelgium07:37:00  +  00:30:38=25,339 
57 ITALuciano PezziITAItaly07:37:37  +  00:31:15=25,305 
58 ITAGiuseppe AusendaITACadetti Italiens07:37:50  +  00:31:28=25,293 
59 FRARoger Le NizerhyFRAWest-North07:39:30  +  00:33:08=25,201 
60 FRAPaul GiguetFRASouth-East07:41:17  +  00:34:55=25,104 
61 ITAFermo CamelliniFRASouth-East07:41:40  +  00:35:18=25,083 
62 ITAGiovanni CorrieriITAItaly07:41:52  +  00:35:30=25,072 
63 FRAAlbert DolhatsFRACenter-South West07:42:43  +  00:36:21=25,026 
64 FRAAndre MahéFRAWest-North07:43:40  +  00:37:18=24,975 
65 FRAGeorges RamouluxFRACenter-South West07:46:20  +  00:39:58=24,832 
66 FRAJean BlancFRACenter-South West07:49:01  +  00:42:39=24,690 
67 GERCésar MarcelakFRAWest-North07:50:46  +  00:44:24=24,598 
68 BELFlorent MathieuBELBelgium08:19:13  +  01:12:51=23,196 
69 MARCustodio Dos ReisFRACenter-South West08:19:20  +  01:12:58=23,191 

Withdrawls: 5
 
Rider
Team
Reason
13  BELNorbert CallensBELBelgiumDid not finish
14  BELRoger GhyselinckBELBelgiumDid not finish
15  BELRaymond ImpanisBELBelgiumDid not finish
23  BELEdward Van DijckBELBelgiumDid not finish
45  LUXMarcel ErnzerLUXLuxembourgDid not finish

Todays birthdays.

1875  Jules Sales
1888  Leon Lannoy
1922  Henri Surbatis
1932  Ferdinand Devèze
1939  Dieter Puschel
1961  Gerhard Zadrobilek
1964  Javier Duch
1965  Clarence Knickman
1968  Michael Sandstød
1986  Simon Spilak




Visits: